Regional Weather Roundup
Issued by NWS

Home | Current Version | Previous Version | Text Only | Print | Product List | Glossary Off
Versions: 1 2 3 4 5 6 7 8 9 10 11 12 13 14 15 16 17 18 19 20 21 22 23 24 25 26 27 28 29 30 31 32 33 34 35 36 37 38 39 40 41 42 43 44 45 46 47 48 49 50

584
ASUS43 KDMX 232106
RWRIA

WEATHER ROUNDUP FOR IOWA
NATIONAL WEATHER SERVICE DES MOINES IA
400 PM CDT MON APR 23 2018

NOTE: "FAIR" INDICATES FEW OR NO CLOUDS BELOW 12,000 FEET WITH NO
SIGNIFICANT WEATHER AND/OR OBSTRUCTIONS TO VISIBILITY.

* - THESE STATIONS ARE NOT NWS STATIONS...THUS NOT UNDER NWS
QUALITY CONTROL.  THEY ALSO DO NOT REPORT WEATHER SUCH
AS PRECIPITATION OR FOG.

IAZ001>003-012>014-020>022-031>034-043>046-232200-
   NORTHWEST IOWA

CITY           SKY/WX    TMP DP  RH WIND       PRES   REMARKS
CARROLL *      SUNNY     72  34  25 VRB6G14   30.10F
CHEROKEE *     SUNNY     68  35  29 NE3       30.13F
DENISON *      SUNNY     70  32  24 VRB5G13   30.11F
LE MARS *      SUNNY     72  30  21 S9        30.11F
ORANGE CITY *  SUNNY     70  36  28 E3        30.13F
SHELDON *      SUNNY     68  32  26 SE6G12    30.12F
SIOUX CITY     SUNNY     72  31  22 E10       30.10F
SPENCER        SUNNY     67  35  30 E8        30.15F
STORM LAKE *   SUNNY     66  39  37 NE12      30.13F
$$

IAZ055>058-069>071-079>083-090>094-232200-
   SOUTHWEST IOWA

CITY           SKY/WX    TMP DP  RH WIND       PRES   REMARKS
ATLANTIC *     SUNNY     72  30  21 E7G13     30.09F
AUDUBON *      SUNNY     72  21  15 E5        30.11F
CLARINDA *     SUNNY     73  30  20 NE9G16    30.09F
COUNCIL BLFS * SUNNY     72  28  20 NE8G15    30.08F
CRESTON *      SUNNY     72  30  21 NE9       30.09F
HARLAN  *      SUNNY     72  27  18 NE7G18    30.12F
LAMONI         SUNNY     72  33  24 NE14G22   30.06F
RED OAK *      SUNNY     73  34  23 NE9       30.08F
SHENANDOAH *   SUNNY     73  28  19 NE7G14    30.08F
$$

IAZ047>049-059>061-072>074-084-232200-
   CENTRAL IOWA

CITY           SKY/WX    TMP DP  RH WIND       PRES   REMARKS
AMES           SUNNY     72  31  22 NE6       30.09F
ANKENY *       SUNNY     72  27  18 E13       30.09F
BOONE *        SUNNY     70  30  23 NE8G17    30.09F
CHARITON *     SUNNY     72  28  20 E13G21    30.07F
DES MOINES     MOSUNNY   73  29  19 NE12      30.09F
GRINNELL*      SUNNY     72  26  18 NE10      30.09F
KNOXVILLE *    SUNNY     72  27  18 NE16      30.06F
MARSHALLTOWN   SUNNY     71  29  21 NE10G21   30.09F
NEWTON *       SUNNY     72  28  20 NE15G25   30.08F
PELLA *        SUNNY     73  23  15 E10       30.08F
PERRY *        FAIR      69  22  16 E6        30.09F
$$

IAZ004>006-015-016-023>025-035-036-232200-
   NORTH CENTRAL IOWA

CITY           SKY/WX    TMP DP  RH WIND       PRES   REMARKS
ALGONA *       SUNNY     64  43  45 NE12      30.15F
CLARION *      SUNNY     68  36  30 NE8G14    30.13F
ESTHERVILLE    SUNNY     60  41  49 NE8       30.16F
FORT DODGE *   SUNNY     69  36  29 E13       30.13F
MASON CITY     SUNNY     66  41  40 NE9       30.15F
FOREST CITY *  FAIR      66  37  34 NE10      30.15F
WEBSTER CITY * SUNNY     70  34  26 NE13      30.10F
IOWA FALLS *   FAIR      71  32  23 NE9       30.12F
$$

IAZ007>011-017>019-026>030-037>042-050>054-066-232200-
   NORTHEAST IOWA

CITY           SKY/WX    TMP DP  RH WIND       PRES   REMARKS
CEDAR RAPIDS   FAIR      71  26  18 NE12G20   30.08F
CHARLES CITY * FAIR      68  36  30 N8G16     30.14F
CLINTON *      FAIR      70  32  24 NE16      30.07F
DECORAH *      FAIR      66  23  19 CALM      30.12F
DUBUQUE        FAIR      68  26  20 NE12G23   30.10F
MONTICELLO *   FAIR      70  25  18 NE12G18   30.09F
OELWEIN *      FAIR      68  28  22 E12       30.12F
WATERLOO       FAIR      71  31  22 N13       30.10F
$$

IAZ064-065-067-068-078-232200-
   EAST CENTRAL IOWA

CITY           SKY/WX    TMP DP  RH WIND       PRES   REMARKS
DAVENPORT      FAIR      72  30  21 NE16G22   30.08F
IOWA CITY      FAIR      70  24  17 NE14      30.09F
MT. PLEASANT * MOSUNNY   70  30  23 E10G21    30.05F
MUSCATINE *    FAIR      73  30  20 NE13G21   30.06F
QUAD CITIES    FAIR      74  34  23 E16G22    30.04F
$$

IAZ062-063-075>077-085>089-095>099-232200-
   SOUTHEAST IOWA

CITY           SKY/WX    TMP DP  RH WIND       PRES   REMARKS
BURLINGTON     SUNNY     72  32  23 NE17G24   30.03F
FAIRFIELD *    PTSUNNY   70  23  17 NE14      30.06F
FORT MADISON * SUNNY     73  34  23 NE14      30.03F
KEOKUK *       SUNNY     73  32  21 NE8G18    30.02F
OSKALOOSA *    FAIR      71  22  16 E17       30.07F
CENTERVILLE *    N/A     72  28  20 NE13G18   30.07S
OTTUMWA        MOSUNNY   71  26  18 NE10      30.06F
WASHINGTON *   CLOUDY    72  25  17 NE15G21   30.08S
$$

ABBREVIATIONS USED IN REMARKS
   TC - TEMPERATURES IN CELSIUS
  WCI - WIND CHILL INDEX
   HX - HEAT INDEX
  VSB - VISIBILITY
$$





USA.gov is the U.S. government's official web portal to all federal, state and local government web resources and services.